Location: Pedholt
(56.0260°N, 10.2097°E)
Time: 02:46:07
(UTC+00:00)

Transit 2A Rocket - Pass Details

Date: 28 July 2021
Orbit: 586 x 917 km, 66.7° (Epoch: 27 September)

Event Time Altitude Azimuth Distance (km) Brightness Sun altitude
Rises 13:19:08 0° 162° (SSE) 2,859 8.3 47.2°
Reaches altitude 10° 13:22:19 10° 137° (SE) 2,006 7.3 46.9°
Maximum altitude 13:24:36 14° 106° (ESE) 1,807 6.9 46.6°
Drops below altitude 10° 13:26:56 10° 76° (ENE) 2,098 7.0 46.4°
Sets 13:30:24 0° 52° (NE) 3,094 7.7 46.1°
